[keps] orb10154.2l.amsat
Ray Hoad
ray.hoad at mypbmail.com
Thu Jun 3 19:25:55 PDT 2010
SB KEPS @ AMSAT $ORB10154.N
2Line Orbital Elements 10154.AMSAT
HR AMSAT ORBITAL ELEMENTS FOR AMATEUR SATELLITES IN NASA FORMAT
FROM WA5QGD FORT WORTH,TX June 3, 2010
Send Subscribe/unsubscribe to KEPS at http://www.amsat.org/mailman/listinfo/keps
BID: ORB10154.N
DECODE 2-LINE ELSETS WITH THE FOLLOWING KEY:
1 AAAAAU 00 0 0 BBBBB.BBBBBBBB .CCCCCCCC 00000-0 00000-0 0 DDDZ
2 AAAAA EEE.EEEE FFF.FFFF GGGGGGG HHH.HHHH III.IIII JJ.JJJJJJJJKKKKKZ
KEY: A-CATALOGNUM B-EPOCHTIME C-DECAY D-ELSETNUM E-INCLINATION F-RAAN
G-ECCENTRICITY H-ARGPERIGEE I-MNANOM J-MNMOTION K-ORBITNUM Z-CHECKSUM
TO ALL RADIO AMATEURS BT
AO-07
1 07530U 74089B 10154.63558850 -.00000027 00000-0 10000-3 0 7929
2 07530 101.3997 171.0273 0011776 302.5727 057.4204 12.53578558626753
FO-29
1 24278U 96046B 10153.90590568 -.00000048 00000-0 -14256-4 0 03215
2 24278 098.5132 345.0123 0350896 160.7517 200.7274 13.52950224681177
SO-33
1 25509U 98061B 10154.49033744 .00000387 00000-0 64000-4 0 7259
2 25509 031.4325 225.9840 0353934 170.1941 190.5764 14.28309915606096
RS-22
1 27939U 03042A 10154.65423810 .00000105 00000-0 28926-4 0 2382
2 27939 097.8937 020.7135 0014686 101.0002 259.2842 14.63422618356971
VO-52
1 28650U 05017B 10154.62751925 -.00000090 00000-0 -48437-5 0 5181
2 28650 097.6929 208.5903 0026174 323.2636 036.6805 14.81752287274687
SO-67
1 35870U 09049F 10154.76831251 .00000902 00000-0 43814-4 0 7868
2 35870 097.3320 204.2582 0004256 126.8616 010.1208 15.20907311 39417
HO-68
1 36122U 09072B 10154.71871419 -.00000045 00000-0 00000 0 0 3624
2 36122 100.4689 215.2834 0007842 009.3946 350.7310 13.16280882 22441
UO-11
1 14781U 84021B 10153.75504916 -.00000125 00000-0 -94111-5 0 02571
2 14781 098.0564 205.4522 0008049 288.1135 071.9187 14.79804642409678
AO-16
1 20439U 90005D 10153.65403140 -.00000007 00000-0 12818-4 0 09122
2 20439 098.3314 112.1331 0010429 205.0311 155.0369 14.31862425063305
LO-19
1 20442U 90005G 10154.42263839 -.00000010 00000-0 11722-4 0 8217
2 20442 098.2923 118.7299 0011337 197.9657 162.1119 14.32093993 63589
AO-27
1 22825U 93061C 10153.52220951 .00000077 00000-0 47111-4 0 05464
2 22825 098.4852 101.8526 0007749 317.9440 042.1149 14.29298761869952
IO-26
1 22826U 93061D 10153.66028545 .00000011 00000-0 21029-4 0 02831
2 22826 098.4786 102.5937 0008295 312.2012 047.8467 14.29554492870080
GO-32
1 25397U 98043D 10153.75861863 .00000072 00000-0 49962-4 0 02024
2 25397 098.3112 162.0042 0000788 007.4936 352.6239 14.23179187617994
NO-44
1 26931U 01043C 10154.70169753 -.00000259 00000-0 -68604-4 0 4731
2 26931 067.0515 238.7184 0005596 263.1976 096.8482 14.29597610452821
SO-50
1 27607U 02058C 10153.66905002 .00000278 00000-0 65823-4 0 01891
2 27607 064.5589 040.6158 0034525 084.3839 276.1226 14.71544858400242
CO-55
1 27844U 03031E 10153.58714392 .00000063 00000-0 49463-4 0 08595
2 27844 098.7080 162.7710 0008929 210.6256 149.4399 14.20710080359013
CO-57
1 27848U 03031J 10154.53028371 .00000058 00000-0 47422-4 0 8104
2 27848 098.7135 162.7922 0008988 211.5504 148.5125 14.20502447359107
AO-51
1 28375U 04025K 10154.53629983 .00000021 00000-0 18863-4 0 6914
2 28375 098.0617 148.8108 0084067 137.9661 222.8020 14.40686365311549
GENESAT1
1 29655U 06058C 10154.28320024 .00120934 11433-4 36918-3 0 859
2 29655 040.0169 119.4531 0009611 227.3503 132.6489 15.91181412197779
CP3
1 31129U 07012N 10153.54009885 .00000220 00000-0 61623-4 0 05931
2 31129 097.9387 193.8935 0100554 279.2202 079.7637 14.52261145165730
CO-65
1 32785U 08021C 10153.30737226 .00000360 00000-0 52388-4 0 06981
2 32785 097.8964 218.4389 0014520 337.9876 022.0679 14.81659829113284
KKS-1
1 33493U 09002B 10154.74176076 .00000629 00000-0 88086-4 0 5405
2 33493 098.0846 274.1196 0019751 180.6885 179.4316 14.80999299 73492
SOHLA-1
1 33496U 09002E 10153.86169324 .00000067 00000-0 19488-4 0 01208
2 33496 098.0574 263.1227 0005587 243.6419 116.4210 14.69495895072775
NOAA-10
1 16969U 86073A 10153.64302015 -.00000049 00000-0 -20304-5 0 00862
2 16969 098.6564 182.7468 0011356 252.9499 107.0420 14.27417503233504
NOAA-11
1 19531U 88089A 10153.74381152 -.00000143 00000-0 -51378-4 0 00970
2 19531 098.7695 243.0135 0011404 185.0224 175.0842 14.14926109119099
NOAA-12
1 21263U 91032A 10153.96339775 .00000018 00000-0 26448-4 0 05856
2 21263 098.7638 167.1260 0011997 203.6702 156.3924 14.25635431990379
MET-3/5
1 21655U 91056A 10153.82211858 .00000051 00000-0 10000-3 0 8275
2 21655 082.5574 318.7854 0014230 029.9227 330.2732 13.17021626903785
MET-2/21
1 22782U 93055A 10153.75657435 .00000069 00000-0 48864-4 0 7925
2 22782 082.5479 263.8872 0023992 083.8516 276.5387 13.83646160846082
OKEAN-4
1 23317U 94066A 10154.69056637 .00000261 00000-0 29302-4 0 2491
2 23317 082.5404 006.4590 0020529 288.7001 071.2003 14.82822342844453
NOAA-14
1 23455U 94089A 10153.84618242 -.00000043 00000-0 60962-6 0 00789
2 23455 098.8784 234.6883 0008525 277.8728 082.1483 14.13786470795479
NOAA-15
1 25338U 98030A 10153.82835032 .00000120 00000-0 69875-4 0 03976
2 25338 098.6177 141.0118 0011608 114.5585 245.6797 14.24830348626700
RESURS
1 25394U 98043A 10153.59432009 -.00000006 00000-0 15128-4 0 05207
2 25394 098.3051 172.4678 0000415 279.4870 080.6267 14.24201888618274
FENGYUN1
1 25730U 99025A 10153.88183859 -.00000443 00000-0 -23346-3 0 00582
2 25730 098.7860 119.2097 0023144 313.7777 046.1501 14.08204560569675
OKEAN-0
1 25860U 99039A 10154.56451468 .00000050 00000-0 15053-4 0 96
2 25860 097.8310 127.7264 0001774 096.5211 263.6193 14.73642113584899
NOAA-16
1 26536U 00055A 10153.84737119 -.00000185 00000-0 -74789-4 0 08749
2 26536 099.1697 170.9783 0010810 022.8962 337.2686 14.12559793499800
NOAA-17
1 27453U 02032A 10153.73406699 .00000225 00000-0 11588-3 0 08772
2 27453 098.4317 204.7593 0011913 174.8258 185.3041 14.24163316412645
NOAA-18
1 28654U 05018A 10153.90906613 .00000367 00000-0 22725-3 0 03624
2 28654 098.9491 100.2146 0015304 093.6994 266.5960 14.11361173259428
NOAA-19
1 33591U 09005A 10153.96483857 .00000381 00000-0 23585-3 0 05595
2 33591 098.7875 096.3882 0013690 333.4216 026.6269 14.11058165067909
HUBBLE
1 20580U 90037B 10154.88214637 .00000521 00000-0 27104-4 0 5772
2 20580 028.4705 326.7173 0003203 058.4260 301.6674 15.00981809902756
ISS
1 25544U 98067A 10154.85504495 .00026110 00000-0 17356-3 0 2764
2 25544 051.6470 298.8802 0008978 020.7547 115.2118 15.75210843661377
CO-58
1 28895U 05043F 10153.72540184 .00000366 00000-0 85768-4 0 5983
2 28895 098.0178 038.6815 0017140 334.4331 025.6088 14.59897271244879
FALCON
1 30776U 07006E 10153.93928190 .00000756 00000-0 57128-4 0 08531
2 30776 035.4318 130.7933 0000835 014.2228 345.8519 15.03673458177912
MAST
1 31126U 07012K 10153.55970370 .00000316 00000-0 82086-4 0 08817
2 31126 097.9374 196.3264 0093192 271.5428 087.5109 14.53591305165938
CAPE1
1 31130U 07012P 10153.80389816 .00000117 00000-0 37910-4 0 9006
2 31130 097.9370 193.9970 0100601 278.7842 080.1912 14.52181808165572
COMPASS
1 32787U 08021E 10153.31364727 .00000424 00000-0 60205-4 0 06883
2 32787 097.8943 218.2744 0015389 338.6069 021.4427 14.81877423113299
AAUSAT2
1 32788U 08021F 10153.18310769 .00000277 00000-0 41490-4 0 06810
2 32788 097.8952 218.2699 0014948 340.6195 019.4440 14.82019034113280
DO-64
1 32789U 08021G 10153.86855342 .00000748 00000-0 10045-3 0 07003
2 32789 097.9013 219.4031 0014862 336.1761 023.8735 14.82157597113381
CO-66
1 32791U 08021J 10153.19834802 .00000373 00000-0 54005-4 0 06817
2 32791 097.8957 218.1780 0015802 337.0570 022.9951 14.81662047113234
RS-30
1 32953U 08025A 10154.76809017 .00000010 00000-0 00000 0 0 7512
2 32953 082.5028 038.0245 0019460 128.6420 231.6405 12.43005225 92077
TACSAT-3
1 35001U 09028A 10153.86068932 .00007139 00000-0 16903-3 0 3019
2 35001 040.4543 300.1598 0021761 262.2997 097.5347 15.41717730 58421
PHARMSAT
1 35002U 09028B 10153.75461519 .00006165 00000-0 14377-3 0 2858
2 35002 040.4691 298.8516 0025511 262.0627 097.7292 15.42251437 58423
HAWKSAT1
1 35003U 09028C 10154.72621145 .00012410 00000-0 25643-3 0 3062
2 35003 040.4575 288.2012 0023055 283.9815 075.8440 15.45274976 58632
CP6
1 35004U 09028D 10154.73025951 .00014424 00000-0 28930-3 0 3022
2 35004 040.4644 287.3610 0022214 283.1378 076.6961 15.46071835 58633
AEROCUB3
1 35005U 09028E 10154.76306246 .00041993 00000-0 70273-3 0 3348
2 35005 040.4708 285.2867 0019431 290.1044 069.7683 15.50858624 58662
DRAGNSAT
1 35690U 09038B 10076.22711312 .05715194 12509-4 31481-3 0 3162
2 35690 051.6170 315.4586 0004999 310.9891 057.3269 16.42150010 36561
POLLUX
1 35693U 09038E 10087.99866888 .23496735 12787-4 17715-3 0 3529
2 35693 051.6099 254.5746 0006270 294.4866 097.5899 16.52338462 38395
CASTOR
1 35694U 09038F 10154.79145001 .00077248 13908-4 14728-3 0 4336
2 35694 051.6390 271.7726 0000622 212.6789 147.4146 16.00688054 48917
METEOR-M
1 35865U 09049A 10154.69329210 .00000176 00000-0 10000-3 0 3501
2 35865 098.7593 208.5881 0003407 051.5432 308.5993 14.21830343 36809
RS-38
1 35869U 09049E 10154.73660348 .00000177 00000-0 10000-3 0 3589
2 35869 098.7589 208.6633 0005484 048.4254 311.7356 14.21982517 36819
/EX
More information about the Keps
mailing list